Regional Weather Roundup
Issued by NWS

Home | Current Version | Previous Version | Text Only | Print | Product List | Glossary Off
Versions: 1 2 3 4 5 6 7 8 9 10 11 12 13 14 15 16 17 18 19 20 21 22 23 24 25 26 27 28 29 30 31 32 33 34 35 36 37 38 39 40 41 42 43 44 45 46 47 48 49 50

882
ASUS44 KLIX 011910
RWRLA
LOUISIANA WEATHER ROUNDUP
NATIONAL WEATHER SERVICE NEW ORLEANS LA
100 PM CST SUN FEB 01 2015

NOTE: "FAIR" INDICATES FEW OR NO CLOUDS BELOW 12,000 FEET WITH NO
      SIGNIFICANT WEATHER AND/OR OBSTRUCTIONS TO VISIBILITY.
      SKY/WX - SKY CONDITION AND SIGNIFICANT WEATHER.
      TMP - AIR TEMPERATURE.    DP   - DEWPOINT TEMPERATURE.
      RH  - RELATIVE HUMIDITY.  PRES - PRESSURE.
      HX  - HEAT INDEX.         WCI  - WIND CHILL INDEX.

*  THESE STATIONS ARE NOT NWS OR FAA STATIONS AND ARE NOT UNDER
   NWS QUALITY CONTROL.

LAZ040-048-061>063-065-066-069-012000-
SOUTHEAST LOUISIANA

CITY           SKY/WX    TMP DP  RH WIND       PRES   REMARKS
N.O. AUDUBON     N/A     72  65  76 MISG        N/A
N.O. INTL ARPT CLOUDY    73  62  68 SW9       29.94F
N.O. LAKEFRONT CLOUDY    73  60  63 SW16      29.94F
N.O. DOWNTOWN* NOT AVBL
SLIDELL        MOSUNNY   72  61  68 S9        29.94F
BATON ROUGE    CLOUDY    65  61  87 SW8       29.92F FOG
BOOTHVILLE     PTSUNNY   69  65  86 S9        29.97F
BELLE CHASSE   PTSUNNY   72  62  71 S10       29.94F
BOGALUSA*        N/A     73  59  62 SW12G18   29.95F
GALLIANO*      CLOUDY    73  65  75 MISG      29.96F
NEW ROADS*     CLOUDY    65  63  96 S9        29.92F
GONZALES*      CLOUDY    67  67  98 S3        29.93F
HAMMOND*       DRIZZLE   68  63  83 SW6       29.95F
HOUMA*         PTSUNNY   73  64  73 SW12      29.95F
PORT FOURCHON* PTCLDY    72  66  83 SW9       29.99F

$$

LAZ041-044-053-054-012000-
SOUTHWEST LOUISIANA

CITY           SKY/WX    TMP DP  RH WIND       PRES   REMARKS
LAKE CHARLES   PTSUNNY   74  64  71 SW16G23   29.90F
LAFAYETTE      CLOUDY    70  65  84 SW13      29.92F
PATTERSON      CLOUDY    72  61  68 SW18      29.95F
SALT POINT       N/A     66  63  90 VRB7      29.94F
NEW IBERIA     LGT RAIN  69  64  84 SW13      29.94F
CHENAULT AIRPK MOSUNNY   73  66  78 SW18G25   29.91F

$$

LAZ027-028-012000-
CENTRAL LOUISIANA

CITY           SKY/WX    TMP DP  RH WIND       PRES   REMARKS
FORT POLK      CLOUDY    73  60  63 SW21G26   29.86F
ALEXANDRIA INT CLOUDY    74  59  59 SW17G23   29.83F
ALEXANDRIA     PTSUNNY   76  58  53 W16G25    29.85F

$$

LAZ001-002-012000-
NORTHWEST LOUISIANA

CITY           SKY/WX    TMP DP  RH WIND       PRES   REMARKS
SHREVEPORT     CLOUDY    60  57  89 NW16      29.84R
BARKSDALE AFB  CLOUDY    57  57 100 NW16      29.84R
DTN SHREVEPORT PTSUNNY   59  54  83 NW16G22   29.84S

$$

LAZ014-016-012000-
NORTHEAST LOUISIANA

CITY           SKY/WX    TMP DP  RH WIND       PRES   REMARKS
MONROE         CLOUDY    68  60  75 SW23G29   29.81F
TALLULAH       PTSUNNY   71  60  68 S10G18    29.84F

$$




USA.gov is the U.S. government's official web portal to all federal, state and local government web resources and services.